Regional Weather Roundup
Issued by NWS

Home | Current Version | Previous Version | Text Only | Print | Product List | Glossary Off
Versions: 1 2 3 4 5 6 7 8 9 10 11 12 13 14 15 16 17 18 19 20 21 22 23 24 25 26 27 28 29 30 31 32 33 34 35 36 37 38 39 40 41 42 43 44 45 46 47 48 49 50

000
ASUS43 KOAX 170802
RWRNE

WEATHER ROUNDUP FOR NEBRASKA
NATIONAL WEATHER SERVICE OMAHA NE
200 AM CST FRI NOV 17 2017

NOTES: SATELLITE DATA IS BEING USED TO AUGMENT CLOUD COVER ABOVE
       12000 FEET.
       "FAIR" INDICATES FEW OR NO CLOUDS BELOW 12,000 FEET WITH NO
       SIGNIFICANT WEATHER AND/OR OBSTRUCTIONS TO VISIBILITY.


NEZ001>004-019>022-054>056-170900-
NEBRASKA PANHANDLE

CITY           SKY/WX    TMP DP  RH WIND       PRES   REMARKS
SCOTTSBLUFF    CLOUDY    44  29  55 NE9       29.62F
ALLIANCE       CLOUDY    34  29  82 CALM      29.62F
CHADRON        CLOUDY    46  30  53 N17G26    29.63R
GORDON         FAIR      37  28  70 W8        29.59S WCI  31
KIMBALL        CLOUDY    41  28  60 SW6       29.67S
SIDNEY         CLOUDY    38  28  67 W7        29.66F WCI  33
$$

NEZ057>060-069>072-079>082-170900-
SOUTHWEST NEBRASKA

CITY           SKY/WX    TMP DP  RH WIND       PRES   REMARKS
NORTH PLATTE   CLOUDY    35  31  85 CALM      29.64F
LEXINGTON      CLOUDY    46  40  81 S8        29.64F
MCCOOK         CLOUDY    43  38  82 E6        29.63F
OGALLALA       CLOUDY    33  28  83 W7        29.63F WCI  26
$$

NEZ005>010-023>029-035>040-094-170900-
NORTH CENTRAL NEBRASKA

CITY           SKY/WX    TMP DP  RH WIND       PRES   REMARKS
VALENTINE      CLOUDY    44  33  65 NW5       29.55F
AINSWORTH      CLOUDY    46  37  70 S13       29.56F
BROKEN BOW     CLOUDY    44  37  76 S8        29.63F
O`NEILL        CLOUDY    44  38  78 S16       29.59F
ORD            CLOUDY    38  35  89 S6        29.64F WCI  33
THEDFORD       MOCLDY    47  37  66 SW9       29.60F
$$

NEZ041-046>049-061>064-073>077-083>087-170900-
SOUTH CENTRAL NEBRASKA

CITY           SKY/WX    TMP DP  RH WIND       PRES   REMARKS
GRAND ISLAND   PTCLDY    47  45  93 S16       29.66F
AURORA         CLOUDY    46  41  83 S15G21    29.67F
HASTINGS       CLOUDY    50  47  89 S16G32    29.67F
HEBRON         CLOUDY    53  47  79 S15G22    29.72F
HOLDREGE       CLOUDY    47  46  96 S15G21    29.65F
KEARNEY        CLOUDY    47  45  93 S17       29.66F
$$

NEZ011>018-030>034-042>045-170900-
NORTHEAST NEBRASKA

CITY           SKY/WX    TMP DP  RH WIND       PRES   REMARKS
NORFOLK        CLEAR     44  36  73 S16G24    29.67F
ALBION         CLOUDY    43  37  79 SE8       29.67F
BLAIR          MOCLDY    44  32  63 S16       29.75F
COLUMBUS       CLOUDY    45  36  70 S12       29.71F
FREMONT        CLOUDY    44  31  61 SE16G24   29.74F
TEKAMAH        PTCLDY    40  29  64 S12       29.75F WCI  33
WAYNE          CLEAR     38  30  72 S10       29.69F WCI  32
$$

NEZ050>053-065>068-078-088>093-170900-
SOUTHEAST NEBRASKA

CITY           SKY/WX    TMP DP  RH WIND       PRES   REMARKS
LINCOLN        CLOUDY    51  37  58 S16       29.75F
OMAHA EPPLEY   PTCLDY    43  30  60 S14       29.79F
BEATRICE       CLOUDY    50  39  65 S17G25    29.74F
FALLS CITY     CLOUDY    47  33  58 S13       29.82F
NEBRASKA CITY  MOCLDY    46  33  61 S14       29.81F
PLATTSMOUTH    MOCLDY    45  32  61 SE16G23   29.79F
$$

NEZ044-045-051>053-067-170900-
OMAHA AREA

CITY           SKY/WX    TMP DP  RH WIND       PRES   REMARKS
OMAHA EPPLEY   PTCLDY    43  30  60 S14       29.79F
BLAIR          MOCLDY    44  32  63 S16       29.75F
FREMONT        CLOUDY    44  31  61 SE16G24   29.74F
MILLARD        MOCLDY    45  32  61 SE10      29.78F
OFFUTT AFB     PTCLDY    41  29  64 SE9       29.79F
PLATTSMOUTH    MOCLDY    45  32  61 SE16G23   29.79F
WAHOO          CLOUDY    43  31  62 SE13      29.75F
$$




USA.gov is the U.S. government's official web portal to all federal, state and local government web resources and services.